TimeCST,TemperatureF,Dew PointF,Humidity,Sea Level PressureIn,VisibilityMPH,Wind Direction,Wind SpeedMPH,Gust SpeedMPH,PrecipitationIn,Events,Conditions,WindDirDegrees,DateUTC
12:15 AM,22.5,12.0,64,30.47,10.0,Calm,Calm,-,N/A,,Clear,0,2012-11-16 06:15:00
12:34 AM,19.2,11.7,72,30.48,10.0,Calm,Calm,-,N/A,,Clear,0,2012-11-16 06:34:00
12:55 AM,19.4,11.8,72,30.48,10.0,Calm,Calm,-,N/A,,Clear,0,2012-11-16 06:55:00
1:14 AM,19.0,11.8,74,30.48,10.0,Calm,Calm,-,N/A,,Clear,0,2012-11-16 07:14:00
1:34 AM,18.3,12.0,76,30.48,10.0,Calm,Calm,-,N/A,,Clear,0,2012-11-16 07:34:00
1:55 AM,19.0,12.0,74,30.48,10.0,Calm,Calm,-,N/A,,Clear,0,2012-11-16 07:55:00
2:14 AM,19.8,12.0,72,30.48,10.0,Calm,Calm,-,N/A,,Clear,0,2012-11-16 08:14:00
2:34 AM,19.8,11.8,71,30.48,10.0,Calm,Calm,-,N/A,,Clear,0,2012-11-16 08:34:00
2:55 AM,18.3,12.6,78,30.48,10.0,Calm,Calm,-,N/A,,Clear,0,2012-11-16 08:55:00
3:14 AM,16.7,11.7,81,30.48,10.0,Calm,Calm,-,N/A,,Clear,0,2012-11-16 09:14:00
3:34 AM,15.4,11.3,84,30.48,10.0,Calm,Calm,-,N/A,,Clear,0,2012-11-16 09:34:00
3:55 AM,16.9,12.2,82,30.47,10.0,Calm,Calm,-,N/A,,Clear,0,2012-11-16 09:55:00
4:15 AM,15.4,11.8,86,30.48,10.0,Calm,Calm,-,N/A,,Clear,0,2012-11-16 10:15:00
4:34 AM,15.4,12.4,88,30.48,10.0,Calm,Calm,-,N/A,,Clear,0,2012-11-16 10:34:00
4:55 AM,15.8,12.4,86,30.47,10.0,Calm,Calm,-,N/A,,Clear,0,2012-11-16 10:55:00
5:14 AM,14.7,11.3,86,30.47,10.0,Calm,Calm,-,N/A,,Clear,0,2012-11-16 11:14:00
5:34 AM,15.1,12.0,88,30.46,10.0,Calm,Calm,-,N/A,,Clear,0,2012-11-16 11:34:00
5:55 AM,15.3,12.4,88,30.46,10.0,Calm,Calm,-,N/A,,Clear,0,2012-11-16 11:55:00
6:14 AM,13.6,9.5,84,30.47,10.0,Calm,Calm,-,N/A,,Clear,0,2012-11-16 12:14:00
6:34 AM,14.9,11.3,86,30.47,10.0,Calm,Calm,-,N/A,,Clear,0,2012-11-16 12:34:00
6:55 AM,16.0,11.3,82,30.46,10.0,Calm,Calm,-,N/A,,Clear,0,2012-11-16 12:55:00
7:14 AM,15.3,10.6,82,30.47,10.0,Calm,Calm,-,N/A,,Clear,0,2012-11-16 13:14:00
7:34 AM,15.6,10.9,82,30.48,10.0,Calm,Calm,-,N/A,,Clear,0,2012-11-16 13:34:00
7:55 AM,16.5,12.0,82,30.48,10.0,Calm,Calm,-,N/A,,Clear,0,2012-11-16 13:55:00
8:14 AM,19.4,12.7,75,30.48,10.0,Calm,Calm,-,N/A,,Clear,0,2012-11-16 14:14:00
8:34 AM,21.2,13.3,72,30.48,10.0,Calm,Calm,-,N/A,,Clear,0,2012-11-16 14:34:00
8:55 AM,23.4,15.1,71,30.49,10.0,Calm,Calm,-,N/A,,Clear,0,2012-11-16 14:55:00
9:14 AM,25.5,15.1,65,30.48,10.0,ENE,5.8,-,N/A,,Clear,70,2012-11-16 15:14:00
9:34 AM,26.4,16.0,65,30.49,10.0,Calm,Calm,-,N/A,,Clear,0,2012-11-16 15:34:00
9:55 AM,27.5,16.5,63,30.49,10.0,Calm,Calm,-,N/A,,Clear,0,2012-11-16 15:55:00
10:14 AM,29.7,18.0,62,30.49,10.0,Calm,Calm,-,N/A,,Clear,0,2012-11-16 16:14:00
10:34 AM,31.6,20.1,62,30.48,10.0,Calm,Calm,-,N/A,,Clear,0,2012-11-16 16:34:00
10:55 AM,33.3,20.7,60,30.48,10.0,SE,4.6,-,N/A,,Clear,130,2012-11-16 16:55:00
11:14 AM,34.2,21.2,59,30.48,10.0,South,6.9,-,N/A,,Clear,170,2012-11-16 17:14:00
11:34 AM,35.1,21.2,57,30.47,10.0,SSE,3.5,-,N/A,,Clear,160,2012-11-16 17:34:00
11:55 AM,36.5,21.2,54,30.46,10.0,SW,4.6,-,N/A,,Clear,230,2012-11-16 17:55:00
12:14 PM,37.0,20.3,51,30.46,10.0,SSW,3.5,-,N/A,,Clear,200,2012-11-16 18:14:00
12:34 PM,37.8,19.4,48,30.46,10.0,SSW,4.6,-,N/A,,Clear,210,2012-11-16 18:34:00
12:55 PM,38.7,18.0,43,30.46,10.0,South,4.6,-,N/A,,Clear,170,2012-11-16 18:55:00
1:14 PM,39.2,18.0,42,30.45,10.0,SSE,3.5,-,N/A,,Clear,160,2012-11-16 19:14:00
1:34 PM,39.7,18.0,42,30.43,10.0,SSE,3.5,-,N/A,,Clear,150,2012-11-16 19:34:00
1:55 PM,39.6,17.4,41,30.42,10.0,SSE,5.8,-,N/A,,Clear,160,2012-11-16 19:55:00
2:14 PM,40.5,17.8,40,30.41,10.0,SE,8.1,-,N/A,,Clear,140,2012-11-16 20:14:00
2:34 PM,41.0,18.1,40,30.40,10.0,SSE,6.9,-,N/A,,Clear,150,2012-11-16 20:34:00
2:55 PM,41.0,18.0,40,30.39,10.0,SSE,5.8,-,N/A,,Clear,160,2012-11-16 20:55:00
3:14 PM,40.6,17.4,39,30.37,10.0,SE,8.1,-,N/A,,Clear,140,2012-11-16 21:14:00
3:34 PM,41.0,18.5,40,30.38,10.0,SSE,6.9,-,N/A,,Clear,150,2012-11-16 21:34:00
3:54 PM,40.1,18.5,42,30.37,10.0,SSE,4.6,-,N/A,,Clear,160,2012-11-16 21:54:00
4:14 PM,39.2,18.5,43,30.37,10.0,SSE,3.5,-,N/A,,Clear,160,2012-11-16 22:14:00
4:35 PM,37.0,18.3,47,30.36,10.0,SSE,4.6,-,N/A,,Scattered Clouds,150,2012-11-16 22:35:00
4:54 PM,35.1,17.8,49,30.36,10.0,SE,3.5,-,N/A,,Scattered Clouds,140,2012-11-16 22:54:00
5:14 PM,34.7,18.3,51,30.36,10.0,Calm,Calm,-,N/A,,Scattered Clouds,0,2012-11-16 23:14:00
5:35 PM,32.2,19.6,60,30.35,10.0,Calm,Calm,-,N/A,,Scattered Clouds,0,2012-11-16 23:35:00
5:54 PM,29.8,18.1,62,30.35,10.0,Calm,Calm,-,N/A,,Scattered Clouds,0,2012-11-16 23:54:00
6:14 PM,30.9,18.7,61,30.36,10.0,ESE,3.5,-,N/A,,Scattered Clouds,120,2012-11-17 00:14:00
6:35 PM,30.0,17.8,60,30.35,10.0,SE,3.5,-,N/A,,Scattered Clouds,130,2012-11-17 00:35:00
6:54 PM,31.1,18.3,59,30.34,10.0,ESE,4.6,-,N/A,,Scattered Clouds,120,2012-11-17 00:54:00
7:14 PM,31.8,18.9,59,30.34,10.0,SE,4.6,-,N/A,,Scattered Clouds,130,2012-11-17 01:14:00
7:55 PM,32.0,20.1,62,30.32,10.0,SE,6.9,-,N/A,,Scattered Clouds,130,2012-11-17 01:55:00
8:14 PM,32.0,20.3,62,30.32,10.0,SE,5.8,-,N/A,,Scattered Clouds,130,2012-11-17 02:14:00
8:35 PM,31.1,20.1,64,30.33,10.0,ESE,3.5,-,N/A,,Scattered Clouds,120,2012-11-17 02:35:00
8:55 PM,29.5,20.1,68,30.33,10.0,SE,4.6,-,N/A,,Scattered Clouds,130,2012-11-17 02:55:00
9:14 PM,29.3,20.1,69,30.33,10.0,SE,3.5,-,N/A,,Scattered Clouds,130,2012-11-17 03:14:00
9:35 PM,29.3,21.2,72,30.33,10.0,ESE,3.5,-,N/A,,Scattered Clouds,120,2012-11-17 03:35:00
9:54 PM,28.8,20.8,72,30.32,10.0,SE,6.9,-,N/A,,Scattered Clouds,140,2012-11-17 03:54:00
10:14 PM,30.4,23.2,75,30.32,10.0,SSE,6.9,-,N/A,,Clear,150,2012-11-17 04:14:00
10:34 PM,31.8,24.6,75,30.32,10.0,SSE,5.8,-,N/A,,Clear,160,2012-11-17 04:34:00
10:55 PM,32.0,24.8,75,30.32,10.0,SSE,6.9,-,N/A,,Clear,160,2012-11-17 04:55:00
11:14 PM,31.8,24.8,75,30.32,10.0,SSE,5.8,-,N/A,,Clear,160,2012-11-17 05:14:00
11:34 PM,31.8,25.3,77,30.32,10.0,SSE,6.9,-,N/A,,Scattered Clouds,160,2012-11-17 05:34:00
11:54 PM,32.0,25.9,78,30.31,10.0,SSE,8.1,-,N/A,,Scattered Clouds,150,2012-11-17 05:54:00